Time,TemperatureF,DewpointF,PressureIn,WindDirection,WindDirectionDegrees,WindSpeedMPH,WindSpeedGustMPH,Humidity,HourlyPrecipIn,Conditions,Clouds,dailyrainin,SoftwareType,DateUTC
2015-03-06 00:08:00,2.4,-4.0,30.43,SE,135,0.0,1.0,74,0.00,,,0.00,weatherlink.com 1.10,2015-03-06 05:08:00,
2015-03-06 00:24:00,1.2,-5.0,30.43,East,86,0.0,0.0,74,0.00,,,0.00,weatherlink.com 1.10,2015-03-06 05:24:00,
2015-03-06 00:39:00,0.7,-5.0,30.44,NW,323,0.0,2.0,78,0.00,,,0.00,weatherlink.com 1.10,2015-03-06 05:39:00,
2015-03-06 00:54:00,0.5,-5.0,30.45,NW,323,0.0,0.0,78,0.00,,,0.00,weatherlink.com 1.10,2015-03-06 05:54:00,
2015-03-06 01:09:00,-0.3,-6.0,30.44,NW,323,0.0,0.0,78,0.00,,,0.00,weatherlink.com 1.10,2015-03-06 06:09:00,
2015-03-06 01:24:00,-0.9,-6.0,30.45,NW,323,0.0,0.0,80,0.00,,,0.00,weatherlink.com 1.10,2015-03-06 06:24:00,
2015-03-06 01:39:00,-1.7,-6.0,30.45,NW,323,0.0,0.0,80,0.00,,,0.00,weatherlink.com 1.10,2015-03-06 06:39:00,
2015-03-06 01:54:00,-1.2,-5.0,30.45,NNE,28,0.0,0.0,82,0.00,,,0.00,weatherlink.com 1.10,2015-03-06 06:54:00,
2015-03-06 02:09:00,0.4,-4.0,30.45,North,355,0.0,1.0,83,0.00,,,0.00,weatherlink.com 1.10,2015-03-06 07:09:00,
2015-03-06 02:24:00,1.8,-3.0,30.45,SW,218,0.0,3.0,80,0.00,,,0.00,weatherlink.com 1.10,2015-03-06 07:24:00,
2015-03-06 02:39:00,0.0,-6.0,30.45,SW,218,0.0,0.0,77,0.00,,,0.00,weatherlink.com 1.10,2015-03-06 07:39:00,
2015-03-06 02:54:00,-1.7,-6.0,30.45,SW,219,0.0,0.0,80,0.00,,,0.00,weatherlink.com 1.10,2015-03-06 07:54:00,
2015-03-06 03:09:00,-2.5,-7.0,30.45,SW,219,0.0,0.0,81,0.00,,,0.00,weatherlink.com 1.10,2015-03-06 08:09:00,
2015-03-06 03:24:00,-4.4,-9.0,30.46,SW,218,0.0,0.0,81,0.00,,,0.00,weatherlink.com 1.10,2015-03-06 08:24:00,
2015-03-06 03:40:00,-5.3,-9.0,30.46,SW,218,0.0,0.0,82,0.00,,,0.00,weatherlink.com 1.10,2015-03-06 08:40:00,
2015-03-06 03:55:00,-6.2,-10.0,30.46,SW,218,0.0,0.0,83,0.00,,,0.00,weatherlink.com 1.10,2015-03-06 08:55:00,
2015-03-06 04:10:00,-6.3,-10.0,30.47,SW,218,0.0,0.0,84,0.00,,,0.00,weatherlink.com 1.10,2015-03-06 09:10:00,
2015-03-06 04:25:00,-6.5,-10.0,30.48,SW,218,0.0,1.0,85,0.00,,,0.00,weatherlink.com 1.10,2015-03-06 09:25:00,
2015-03-06 04:40:00,-6.6,-10.0,30.48,SW,219,0.0,0.0,85,0.00,,,0.00,weatherlink.com 1.10,2015-03-06 09:40:00,
2015-03-06 04:55:00,-6.7,-10.0,30.48,SW,218,0.0,0.0,85,0.00,,,0.00,weatherlink.com 1.10,2015-03-06 09:55:00,
2015-03-06 05:10:00,-4.8,-7.0,30.48,SW,218,0.0,1.0,89,0.00,,,0.00,weatherlink.com 1.10,2015-03-06 10:10:00,
2015-03-06 05:25:00,-2.8,-5.0,30.49,WNW,300,0.0,1.0,89,0.00,,,0.00,weatherlink.com 1.10,2015-03-06 10:25:00,
2015-03-06 05:40:00,0.1,-2.0,30.49,NW,313,1.0,3.0,92,0.00,,,0.00,weatherlink.com 1.10,2015-03-06 10:40:00,
2015-03-06 05:55:00,3.0,1.0,30.49,NW,318,1.0,3.0,90,0.00,,,0.00,weatherlink.com 1.10,2015-03-06 10:55:00,
2015-03-06 06:10:00,3.7,1.0,30.50,North,354,1.0,3.0,89,0.00,,,0.00,weatherlink.com 1.10,2015-03-06 11:10:00,
2015-03-06 06:25:00,4.4,2.0,30.49,NNW,327,1.0,4.0,89,0.00,,,0.00,weatherlink.com 1.10,2015-03-06 11:25:00,
2015-03-06 06:40:00,4.7,2.0,30.50,West,260,0.0,4.0,87,0.00,,,0.00,weatherlink.com 1.10,2015-03-06 11:40:00,
2015-03-06 06:55:00,4.7,2.0,30.50,NNW,345,2.0,3.0,87,0.00,,,0.00,weatherlink.com 1.10,2015-03-06 11:55:00,
2015-03-06 07:11:00,5.7,3.0,30.50,North,5,1.0,4.0,87,0.00,,,0.00,weatherlink.com 1.10,2015-03-06 12:11:00,
2015-03-06 07:26:00,6.7,3.0,30.51,North,352,3.0,6.0,84,0.00,,,0.00,weatherlink.com 1.10,2015-03-06 12:26:00,
2015-03-06 07:41:00,7.6,3.0,30.51,WSW,253,3.0,7.0,82,0.00,,,0.00,weatherlink.com 1.10,2015-03-06 12:41:00,
2015-03-06 07:56:00,8.3,3.0,30.52,NNW,344,2.0,7.0,80,0.00,,,0.00,weatherlink.com 1.10,2015-03-06 12:56:00,
2015-03-06 08:11:00,9.0,3.0,30.52,North,1,2.0,7.0,78,0.00,,,0.00,weatherlink.com 1.10,2015-03-06 13:11:00,
2015-03-06 08:26:00,9.8,3.0,30.52,WNW,301,5.0,8.0,74,0.00,,,0.00,weatherlink.com 1.10,2015-03-06 13:26:00,
2015-03-06 08:41:00,10.7,3.0,30.53,NNE,33,6.0,9.0,71,0.00,,,0.00,weatherlink.com 1.10,2015-03-06 13:41:00,
2015-03-06 08:56:00,11.3,3.0,30.53,NE,44,2.0,8.0,69,0.00,,,0.00,weatherlink.com 1.10,2015-03-06 13:56:00,
2015-03-06 09:11:00,12.1,3.0,30.53,NNE,27,4.0,8.0,66,0.00,,,0.00,weatherlink.com 1.10,2015-03-06 14:11:00,
2015-03-06 09:26:00,13.0,3.0,30.53,NW,309,4.0,8.0,64,0.00,,,0.00,weatherlink.com 1.10,2015-03-06 14:26:00,
2015-03-06 09:41:00,14.2,3.0,30.53,NNW,348,7.0,7.0,62,0.00,,,0.00,weatherlink.com 1.10,2015-03-06 14:41:00,
2015-03-06 09:56:00,15.2,4.0,30.53,NNW,335,1.0,5.0,61,0.00,,,0.00,weatherlink.com 1.10,2015-03-06 14:56:00,
2015-03-06 10:11:00,15.8,3.0,30.53,NNW,328,1.0,7.0,58,0.00,,,0.00,weatherlink.com 1.10,2015-03-06 15:11:00,
2015-03-06 10:27:00,16.5,3.0,30.52,WSW,254,4.0,7.0,56,0.00,,,0.00,weatherlink.com 1.10,2015-03-06 15:27:00,
2015-03-06 10:42:00,17.2,4.0,30.52,NW,310,4.0,7.0,57,0.00,,,0.00,weatherlink.com 1.10,2015-03-06 15:42:00,
2015-03-06 10:57:00,18.3,5.0,30.51,NNE,15,4.0,5.0,55,0.00,,,0.00,weatherlink.com 1.10,2015-03-06 15:57:00,
2015-03-06 11:12:00,19.2,4.0,30.51,NNW,340,3.0,7.0,52,0.00,,,0.00,weatherlink.com 1.10,2015-03-06 16:12:00,
2015-03-06 11:27:00,19.4,2.0,30.50,NNE,33,3.0,7.0,47,0.00,,,0.00,weatherlink.com 1.10,2015-03-06 16:27:00,
2015-03-06 11:42:00,19.4,3.0,30.50,NNW,341,6.0,8.0,49,0.00,,,0.00,weatherlink.com 1.10,2015-03-06 16:42:00,
2015-03-06 11:57:00,19.9,3.0,30.50,WNW,302,3.0,9.0,49,0.00,,,0.00,weatherlink.com 1.10,2015-03-06 16:57:00,
2015-03-06 12:12:00,20.8,3.0,30.50,NW,316,3.0,7.0,46,0.00,,,0.00,weatherlink.com 1.10,2015-03-06 17:12:00,
2015-03-06 12:27:00,21.1,3.0,30.49,NW,322,2.0,6.0,46,0.00,,,0.00,weatherlink.com 1.10,2015-03-06 17:27:00,
2015-03-06 12:42:00,21.2,3.0,30.48,NNW,336,4.0,10.0,46,0.00,,,0.00,weatherlink.com 1.10,2015-03-06 17:42:00,
2015-03-06 12:57:00,21.7,4.0,30.47,NW,311,3.0,7.0,46,0.00,,,0.00,weatherlink.com 1.10,2015-03-06 17:57:00,